World > North America > United States > California > Pleasanton   City of Pleasanton, CA

Pleasanton, CA Hourly Weather Forecast

Feedback E-mail the Weather

Quick Clicks

Weather World

24 Hour Forecast

Current Conditions - Hazy. Temperature is 55°F13°C, dew point 50°F10°C, humidity 83%. Wind direction is VRB at 3 mph5 km/h with visibility of 6 mi10 km. Barometric pressure is 29.97 in1014 mb.
Today - Sunny. Highs in the upper 70s. West winds 5 to 15 mph... Full Forecast
Tonight - Clear in the evening then becoming partly cloudy. Lows around 50. Southwest winds 5 to 15 mph... Full Forecast

Pleasanton Hourly Weather

24 Hour Weather Scroll
Fri, Apr 19
9:00 am
Fri, Apr 19
10:00 am
Fri, Apr 19
11:00 am
Fri, Apr 19
Noon
Fri, Apr 19
1:00 pm
Fri, Apr 19
2:00 pm
Fri, Apr 19
3:00 pm
Fri, Apr 19
4:00 pm
Fri, Apr 19
5:00 pm
Fri, Apr 19
6:00 pm
Fri, Apr 19
7:00 pm
Fri, Apr 19
8:00 pm
Fri, Apr 19
9:00 pm
Fri, Apr 19
10:00 pm
Fri, Apr 19
11:00 pm
Sat, Apr 20
Midnight
Sat, Apr 20
1:00 am
Sat, Apr 20
2:00 am
Sat, Apr 20
3:00 am
Sat, Apr 20
4:00 am
Sat, Apr 20
5:00 am
Sat, Apr 20
6:00 am
Sat, Apr 20
7:00 am
Sat, Apr 20
8:00 am
OvercastSunnySunnySunnySunnySunnySunnySunnySunnySunnySunnyClear Clear Clear Cloudy Overcast Partly Cloudy Cloudy Clear Clear Partly Cloudy Overcast Partly Cloudy Sunny
Overcast Sunny Sunny Sunny Sunny Sunny Sunny Sunny Sunny Sunny Sunny Clear Clear Clear Cloudy Overcast Partly Cloudy Cloudy Clear Clear Partly Cloudy Overcast Partly Cloudy Sunny
56°F13°C 64°F18°C 67°F20°C 70°F21°C 72°F22°C 73°F23°C 73°F23°C 72°F22°C 69°F21°C 66°F19°C 62°F16°C 58°F15°C 56°F14°C 55°F13°C 54°F12°C 54°F12°C 53°F12°C 52°F11°C 51°F11°C 50°F10°C 50°F10°C 50°F10°C 52°F11°C 56°F13°C
47°F
8°C
47°F
8°C
47°F
8°C
47°F
8°C
47°F
9°C
48°F
9°C
49°F
9°C
50°F
10°C
50°F
10°C
50°F
10°C
50°F
10°C
47°F
8°C
46°F
8°C
45°F
7°C
45°F
7°C
45°F
7°C
45°F
7°C
44°F
7°C
45°F
7°C
45°F
7°C
44°F
7°C
44°F
7°C
44°F
7°C
45°F
7°C
30 in
1016 mb
29.94 in
1014 mb
29.94 in
1014 mb
29.94 in
1014 mb
29.91 in
1013 mb
29.91 in
1013 mb
29.91 in
1013 mb
29.88 in
1012 mb
29.91 in
1013 mb
29.91 in
1013 mb
29.91 in
1013 mb
29.94 in
1014 mb
29.94 in
1014 mb
29.97 in
1015 mb
29.97 in
1015 mb
29.94 in
1014 mb
29.94 in
1014 mb
29.97 in
1015 mb
29.97 in
1015 mb
30 in
1016 mb
30 in
1016 mb
30.03 in
1017 mb
30.03 in
1017 mb
30.06 in
1018 mb
80%53%47%43%40%39%40%44%49%53%63%69%70%70%71%72%72%75%78%81%82%81%80%70%
WSWWSWWSWWSWWWWWWWWSWWSWSWSWSWSWSWSWSWSWSWSWSWSW
4 mph
7 km/h
4 mph
6 km/h
4 mph
6 km/h
4 mph
6 km/h
5 mph
8 km/h
5 mph
9 km/h
6 mph
10 km/h
8 mph
13 km/h
8 mph
13 km/h
6 mph
10 km/h
4 mph
7 km/h
4 mph
6 km/h
4 mph
6 km/h
4 mph
6 km/h
4 mph
6 km/h
4 mph
6 km/h
4 mph
6 km/h
4 mph
6 km/h
4 mph
6 km/h
4 mph
7 km/h
4 mph
6 km/h
4 mph
7 km/h
4 mph
6 km/h
4 mph
6 km/h
0%0%0%0%0%0%0%0%0%0%0%0%0%0%0%0%0%0%0%0%0%0%0%0%
8 mi
13 km
6 mi
10 km
6 mi
10 km
6 mi
10 km
6 mi
10 km
6 mi
10 km
6 mi
10 km
6 mi
10 km
6 mi
10 km
6 mi
10 km
6 mi
10 km
6 mi
10 km
6 mi
10 km
6 mi
10 km
6 mi
10 km
6 mi
10 km
6 mi
10 km
6 mi
10 km
6 mi
10 km
6 mi
10 km
6 mi
10 km
6 mi
10 km
6 mi
10 km
6 mi
10 km

Day/Time
Weather
Condition
Temperature
Dew Point
Pressure
Humidity
Wind Direction
Wind Speed
Prob Precip %
Visibility
POP = Probability of Precipitation. ** Indicates missing data/values from KLVK model statistics.

Trending Headlines

Trending Entertainment Headlines

Pleasanton Radar Loop

Use the map search tool if you want to place a location marker on the radar map...

48 Hour API Forecast

Prob Precip % = Probability of Precipitation.

Pleasanton 36 Hour Forecast

POP = Probability of Precipitation. ** Indicates missing data/values from model statistics.

E-mail the Pleasanton Weather Forecast

Voice your opinion or tell us about page issues...

Pleasanton CA Weather - 12:19 pm

What are people saying?

Contact Us